Hourly Weather Roundup
Issued by NWS Central Illinois

Home | Current Version | Previous Version | Graphics & Text | Print | Product List | Glossary On
Versions: 1 2 3 4 5 6 7 8 9 10 11 12 13 14 15 16 17 18 19 20 21 22 23 24 25 26 27 28 29 30 31 32 33 34 35 36 37 38 39 40 41 42 43 44 45 46 47 48 49 50
000
NZUS43 KILX 272310
HWRILX

AREA WEATHER ROUNDUP
NATIONAL WEATHER SERVICE, LINCOLN IL
600 PM CDT WED JUL 27 2016


CITY           SKY/WX    TMP DP  RH WIND       PRES   REMARKS
BLOOMINGTON    MOSUNNY   83  71  67 SE8       29.95F HX  87
CHAMPAIGN      SUNNY     83  71  67 SE5       29.94F HX  87
DANVILLE       CLOUDY    83  69  62 CALM      29.92F HX  87
DECATUR        MOSUNNY   84  72  67 SE6       29.93F HX  89
EFFINGHAM      MOSUNNY   84  76  77 E3        29.93F HX  92
FLORA          MOSUNNY   86  76  72 NE3       29.91F HX  96
GALESBURG      SUNNY     84  69  58 CALM      29.92F HX  88
JACKSONVILLE   MOSUNNY   84  74  71 E5        29.91F HX  91
LACON          PTSUNNY   84  69  59 SE6       29.92F HX  87
LAWRENCEVILLE  CLOUDY    87  73  62 E5        29.91F HX  94
LITCHFIELD     NOT AVBL
$$


CITY           SKY/WX    TMP DP  RH WIND       PRES   REMARKS
LINCOLN        MOSUNNY   85  74  69 SE3       29.92F HX  93
MACOMB         MOSUNNY   84  74  70 E3        29.94F HX  91
MATTOON        MOSUNNY   83  72  69 E6        29.92F HX  88
MT CARMEL AP   MOSUNNY   83  75  76 SE7       29.91F HX  91
OLNEY-NOBLE AP CLOUDY    82  79  89 CALM      29.91F HX  93
PARIS          CLOUDY    84  72  68 CALM      29.94F HX  89
PEORIA         MOSUNNY   85  71  63 S5        29.92F HX  90
PONTIAC        PTSUNNY   83  73  71 S3        29.95F HAZE    HX  89
RANTOUL        NOT AVBL
ROBINSON       SUNNY     85  73  67 E3        29.92F HX  92
SPRINGFIELD    SUNNY     87  71  58 CALM      29.92F HX  93
TAYLORVILLE    MOSUNNY   82  74  75 MISG      29.92F HX  88
$$

...REGIONAL REPORTS...


CITY           SKY/WX    TMP DP  RH WIND       PRES   REMARKS
CHICAGO O`HARE PTSUNNY   85  63  47 E12       29.92F HX  86
KANKAKEE       SUNNY     87  67  50 CALM      29.95S HX  89
MOLINE         MOSUNNY   86  69  56 SE6       29.90F HX  90
MOUNT STERLING SUNNY     85  75  70 E3        29.90F HX  94
MOUNT VERNON   CLOUDY    84  73  70 MISG      29.90F HX  91
PITTSFIELD     MOSUNNY   87  78  76 NE5       29.91F HX 100
QUINCY         SUNNY     89  72  56 SW3       29.90F HX  96
ROCKFORD       MOSUNNY   85  67  54 S6        29.93F HX  87
$$


CITY           SKY/WX    TMP DP  RH WIND       PRES   REMARKS
BURLINGTON     SUNNY     85  72  65 S5        29.90F HX  91
CEDAR RAPIDS   CLOUDY    81  73  76 W6        29.92F HX  86
DES MOINES     CLOUDY    86  68  54 VRB3      29.91F HX  89
KIRKSVILLE     MOSUNNY   89  68  49 W5        29.92F HX  93
OTTUMWA        MOSUNNY   85  66  53 CALM      29.91S HX  87
ST LOUIS       CLOUDY    88  72  58 E9        29.89F HX  94
$$


CITY           SKY/WX    TMP DP  RH WIND       PRES   REMARKS
TERRE HAUTE    MOSUNNY   84  70  62 E5        29.93F HX  88
EVANSVILLE     LGT RAIN  75  73  93 CALM      29.91F
INDIANAPOLIS   PTSUNNY   84  66  54 W9        29.95S HX  86
LAFAYETTE      CLOUDY    84  67  56 S5        29.93F HX  86
MADISON        PTSUNNY   82  69  64 E10       29.93F HX  85
MILWAUKEE      CLOUDY    78  63  59 NE12      29.95F HX  80
$$





USA.gov is the U.S. government's official web portal to all federal, state and local government web resources and services.